Weather in Mang'it

Uzbekistan     42°06′47″N   60°03′57″E
temp.,
°C
wind,
m/s
gust,
m/s
humid.,
%
clouds,
%
prec.,
mm/h
press.,
hPa
HPBL,
m
19 may, wed
wed1923:00+28n22100 0.0 100711
02:00+24nne45232 0.0 100758
05:00+23nne33240 0.0 100629
08:00+27ene12205 0.0 1008145
11:00+32e1212100 0.0 10071237
14:00+35ssw039100 0.0 10063814
17:00+36nne448100 0.0 10054730
20:00+33nne6101199 0.0 1006377
20 may, thu
thu2023:00+29nne61121100 0.0 1007314
02:00+26ne38275 0.0 1008146
05:00+24nne34280 0.0 100855
08:00+28nne33250 0.0 1010206
11:00+33nnw57140 0.0 10111805
14:00+36n66115 0.0 10113658
17:00+36n6612100 0.0 10104069
20:00+32nne610140 0.0 1012348
21 may, fri
fri2123:00+29nne41020100 0.0 1012226
02:00+27ne4925100 0.0 1012183
05:00+25ene23310 0.0 101217
08:00+29nnw112467 0.0 1014166
11:00+34nnw3416100 0.0 10141433
14:00+36n45125 0.0 10134313
17:00+36nne5412100 0.0 10124208
20:00+33ene46162 0.0 1012118
22 may, sat
sat2223:00+30ene612190 0.0 1013350
02:00+28e511175 0.0 1013284
05:00+25ene49113 0.0 1014164
08:00+28e69110 0.0 1016542
11:00+32ene7880 0.0 10161890
14:00+34ene7770 0.0 10152608
17:00+34ne7780 0.0 10142743
20:00+31ne610120 0.0 1014311
23 may, sun
sun2323:00+28ne511170 0.0 1014250
02:00+26ne512200 0.0 1014254
05:00+24ne410240 0.0 1014178
08:00+28ene69190 0.0 1015464
11:00+32ene89160 0.0 10152620
14:00+34ne88130 0.0 10132940
17:00+35ne89120 0.0 10123330
20:00+32ne711150 0.0 1012449